Time,TemperatureF,DewpointF,PressureIn,WindDirection,WindDirectionDegrees,WindSpeedMPH,WindSpeedGustMPH,Humidity,HourlyPrecipIn,Conditions,Clouds,dailyrainin,SolarRadiationWatts/m^2,SoftwareType,DateUTC
2013-01-27 00:01:00,38.0,35.0,-100.00,WSW,237,7.0,16.0,89,0.00,,,1.16,0.000000,,2013-01-27 07:01:00,
2013-01-27 00:13:00,38.0,35.0,-100.00,WSW,237,7.0,16.0,89,0.00,,,1.16,0.000000,,2013-01-27 07:13:00,
2013-01-27 00:21:00,38.0,35.0,-100.00,WSW,237,7.0,16.0,89,0.00,,,1.16,0.000000,,2013-01-27 07:21:00,
2013-01-27 00:31:00,38.0,35.0,-100.00,WSW,237,7.0,16.0,89,0.00,,,1.16,0.000000,,2013-01-27 07:31:00,
2013-01-27 00:52:00,37.0,34.0,-100.00,WSW,237,7.0,14.0,89,0.00,,,1.16,0.000000,,2013-01-27 07:52:00,
2013-01-27 01:01:00,37.0,34.0,-100.00,WSW,237,7.0,14.0,89,0.00,,,1.16,0.000000,,2013-01-27 08:01:00,
2013-01-27 01:11:00,37.0,34.0,-100.00,WSW,237,7.0,14.0,89,0.00,,,1.16,0.000000,,2013-01-27 08:11:00,
2013-01-27 01:21:00,37.0,34.0,-100.00,WSW,237,7.0,14.0,89,0.00,,,1.16,0.000000,,2013-01-27 08:21:00,
2013-01-27 01:31:00,37.0,34.0,-100.00,WSW,237,7.0,14.0,89,0.00,,,1.16,0.000000,,2013-01-27 08:31:00,
2013-01-27 02:02:00,37.0,34.0,-100.00,SW,236,6.0,17.0,90,0.00,,,1.16,0.000000,,2013-01-27 09:02:00,
2013-01-27 02:11:00,37.0,34.0,-100.00,SW,236,6.0,17.0,90,0.00,,,1.16,0.000000,,2013-01-27 09:11:00,
2013-01-27 02:21:00,37.0,34.0,-100.00,SW,236,6.0,17.0,90,0.00,,,1.16,0.000000,,2013-01-27 09:21:00,
2013-01-27 02:31:00,37.0,34.0,-100.00,SW,236,6.0,17.0,90,0.00,,,1.16,0.000000,,2013-01-27 09:31:00,
2013-01-27 02:52:00,36.0,33.0,-100.00,WSW,247,7.0,16.0,90,0.00,,,1.16,0.000000,,2013-01-27 09:52:00,
2013-01-27 03:01:00,36.0,33.0,-100.00,WSW,247,7.0,16.0,90,0.00,,,1.16,0.000000,,2013-01-27 10:01:00,
2013-01-27 03:11:00,36.0,33.0,-100.00,WSW,247,7.0,16.0,90,0.00,,,1.16,0.000000,,2013-01-27 10:11:00,
2013-01-27 03:21:00,36.0,33.0,-100.00,WSW,247,7.0,16.0,90,0.00,,,1.16,0.000000,,2013-01-27 10:21:00,
2013-01-27 03:31:00,36.0,33.0,-100.00,WSW,247,7.0,16.0,90,0.00,,,1.16,0.000000,,2013-01-27 10:31:00,
2013-01-27 03:52:00,36.0,33.0,-100.00,WSW,247,8.0,14.0,90,0.00,,,1.16,0.000000,,2013-01-27 10:52:00,
2013-01-27 04:01:00,36.0,33.0,-100.00,WSW,247,8.0,14.0,90,0.00,,,1.16,0.000000,,2013-01-27 11:01:00,
2013-01-27 04:11:00,36.0,33.0,-100.00,WSW,247,8.0,14.0,90,0.00,,,1.16,0.000000,,2013-01-27 11:11:00,
2013-01-27 04:21:00,36.0,33.0,-100.00,WSW,247,8.0,14.0,90,0.00,,,1.16,0.000000,,2013-01-27 11:21:00,
2013-01-27 04:32:00,36.0,33.0,-100.00,WSW,247,8.0,14.0,90,0.00,,,1.16,0.000000,,2013-01-27 11:32:00,
2013-01-27 04:52:00,36.0,34.0,-100.00,SW,233,7.0,13.0,91,0.00,,,1.11,0.000000,,2013-01-27 11:52:00,
2013-01-27 05:02:00,36.0,34.0,-100.00,SW,233,7.0,13.0,91,0.00,,,1.11,0.000000,,2013-01-27 12:02:00,
2013-01-27 05:11:00,36.0,34.0,-100.00,SW,233,7.0,13.0,91,0.00,,,1.11,0.000000,,2013-01-27 12:11:00,
2013-01-27 05:21:00,36.0,34.0,-100.00,SW,233,7.0,13.0,91,0.00,,,1.11,0.000000,,2013-01-27 12:21:00,
2013-01-27 05:32:00,36.0,34.0,-100.00,SW,233,7.0,13.0,91,0.00,,,1.11,0.000000,,2013-01-27 12:32:00,
2013-01-27 06:02:00,36.0,34.0,-100.00,WSW,237,7.0,16.0,91,0.03,,,1.04,0.000000,,2013-01-27 13:02:00,
2013-01-27 06:11:00,36.0,34.0,-100.00,WSW,237,7.0,16.0,91,0.03,,,1.04,0.000000,,2013-01-27 13:11:00,
2013-01-27 06:22:00,36.0,34.0,-100.00,WSW,237,7.0,16.0,91,0.03,,,1.04,0.000000,,2013-01-27 13:22:00,
2013-01-27 06:31:00,36.0,34.0,-100.00,WSW,237,7.0,16.0,91,0.03,,,1.04,0.000000,,2013-01-27 13:31:00,
2013-01-27 06:52:00,36.0,34.0,-100.00,WSW,253,6.0,11.0,92,0.00,,,0.92,0.000000,,2013-01-27 13:52:00,
2013-01-27 07:01:00,36.0,34.0,-100.00,WSW,253,6.0,11.0,92,0.00,,,0.92,0.000000,,2013-01-27 14:01:00,
2013-01-27 07:11:00,36.0,34.0,-100.00,WSW,253,6.0,11.0,92,0.00,,,0.92,0.000000,,2013-01-27 14:11:00,
2013-01-27 07:21:00,36.0,34.0,-100.00,WSW,253,6.0,11.0,92,0.00,,,0.92,0.000000,,2013-01-27 14:21:00,
2013-01-27 07:31:00,36.0,34.0,-100.00,WSW,253,6.0,11.0,92,0.00,,,0.92,0.000000,,2013-01-27 14:31:00,
2013-01-27 08:11:00,35.0,33.0,-100.00,WSW,238,5.0,9.0,92,0.00,,,0.66,1.000000,,2013-01-27 15:11:00,
2013-01-27 08:22:00,35.0,33.0,-100.00,WSW,238,5.0,9.0,92,0.00,,,0.66,1.000000,,2013-01-27 15:22:00,
2013-01-27 08:32:00,35.0,33.0,-100.00,WSW,238,5.0,9.0,92,0.00,,,0.66,1.000000,,2013-01-27 15:32:00,
2013-01-27 08:53:00,38.0,36.0,-100.00,WSW,248,4.0,11.0,93,0.00,,,0.59,129.000000,,2013-01-27 15:53:00,
2013-01-27 09:02:00,38.0,36.0,-100.00,WSW,248,4.0,11.0,93,0.00,,,0.59,129.000000,,2013-01-27 16:02:00,
2013-01-27 09:11:00,38.0,36.0,-100.00,WSW,248,4.0,11.0,93,0.00,,,0.59,129.000000,,2013-01-27 16:11:00,
2013-01-27 09:21:00,38.0,36.0,-100.00,WSW,248,4.0,11.0,93,0.00,,,0.59,129.000000,,2013-01-27 16:21:00,
2013-01-27 09:32:00,38.0,36.0,-100.00,WSW,248,4.0,11.0,93,0.00,,,0.59,129.000000,,2013-01-27 16:32:00,
2013-01-27 10:01:00,38.0,37.0,-100.00,SW,226,5.0,13.0,95,0.00,,,0.54,148.000000,,2013-01-27 17:01:00,
2013-01-27 10:12:00,38.0,37.0,-100.00,SW,226,5.0,13.0,95,0.00,,,0.54,148.000000,,2013-01-27 17:12:00,
2013-01-27 10:21:00,38.0,37.0,-100.00,SW,226,5.0,13.0,95,0.00,,,0.54,148.000000,,2013-01-27 17:21:00,
2013-01-27 10:32:00,38.0,37.0,-100.00,SW,226,5.0,13.0,95,0.00,,,0.54,148.000000,,2013-01-27 17:32:00,
2013-01-27 10:52:00,39.0,38.0,-100.00,SW,228,4.0,12.0,98,0.00,,,0.54,215.000000,,2013-01-27 17:52:00,
2013-01-27 11:02:00,39.0,38.0,-100.00,SW,228,4.0,12.0,98,0.00,,,0.54,215.000000,,2013-01-27 18:02:00,
2013-01-27 11:11:00,39.0,38.0,-100.00,SW,228,4.0,12.0,98,0.00,,,0.54,215.000000,,2013-01-27 18:11:00,
2013-01-27 11:22:00,39.0,38.0,-100.00,SW,228,4.0,12.0,98,0.00,,,0.54,215.000000,,2013-01-27 18:22:00,
2013-01-27 11:31:00,39.0,38.0,-100.00,SW,228,4.0,12.0,98,0.00,,,0.54,215.000000,,2013-01-27 18:31:00,
2013-01-27 12:02:00,39.0,39.0,-100.00,SW,233,5.0,11.0,99,0.02,,,0.12,172.000000,,2013-01-27 19:02:00,
2013-01-27 12:11:00,39.0,39.0,-100.00,SW,233,5.0,11.0,99,0.02,,,0.12,172.000000,,2013-01-27 19:11:00,
2013-01-27 12:21:00,39.0,39.0,-100.00,SW,233,5.0,11.0,99,0.02,,,0.12,172.000000,,2013-01-27 19:21:00,
2013-01-27 12:32:00,39.0,39.0,-100.00,SW,233,5.0,11.0,99,0.02,,,0.12,172.000000,,2013-01-27 19:32:00,
2013-01-27 12:52:00,39.0,39.0,-100.00,SW,233,7.0,13.0,99,0.00,,,0.06,193.000000,,2013-01-27 19:52:00,
2013-01-27 13:02:00,39.0,39.0,-100.00,SW,233,7.0,13.0,99,0.00,,,0.06,193.000000,,2013-01-27 20:02:00,
2013-01-27 13:11:00,39.0,39.0,-100.00,SW,233,7.0,13.0,99,0.00,,,0.06,193.000000,,2013-01-27 20:11:00,
2013-01-27 13:22:00,39.0,39.0,-100.00,SW,233,7.0,13.0,99,0.00,,,0.06,193.000000,,2013-01-27 20:22:00,
2013-01-27 13:32:00,39.0,39.0,-100.00,SW,233,7.0,13.0,99,0.00,,,0.06,193.000000,,2013-01-27 20:32:00,
2013-01-27 14:02:00,38.0,38.0,-100.00,SW,217,7.0,14.0,99,0.00,,,0.05,164.000000,,2013-01-27 21:02:00,
2013-01-27 14:12:00,38.0,38.0,-100.00,SW,217,7.0,14.0,99,0.00,,,0.05,164.000000,,2013-01-27 21:12:00,
2013-01-27 14:22:00,38.0,38.0,-100.00,SW,217,7.0,14.0,99,0.00,,,0.05,164.000000,,2013-01-27 21:22:00,
2013-01-27 14:32:00,38.0,38.0,-100.00,SW,217,7.0,14.0,99,0.00,,,0.05,164.000000,,2013-01-27 21:32:00,
2013-01-27 15:02:00,39.0,39.0,-100.00,SW,225,7.0,16.0,99,0.00,,,0.05,89.000000,,2013-01-27 22:02:00,
2013-01-27 15:11:00,39.0,39.0,-100.00,SW,225,7.0,16.0,99,0.00,,,0.05,89.000000,,2013-01-27 22:11:00,
2013-01-27 15:21:00,39.0,39.0,-100.00,SW,225,7.0,16.0,99,0.00,,,0.05,89.000000,,2013-01-27 22:21:00,
2013-01-27 15:31:00,39.0,39.0,-100.00,SW,225,7.0,16.0,99,0.00,,,0.05,89.000000,,2013-01-27 22:31:00,
2013-01-27 15:52:00,39.0,39.0,-100.00,SW,230,6.0,19.0,99,0.00,,,0.05,94.000000,,2013-01-27 22:52:00,
2013-01-27 16:02:00,39.0,39.0,-100.00,SW,230,6.0,19.0,99,0.00,,,0.05,94.000000,,2013-01-27 23:02:00,
2013-01-27 16:11:00,39.0,39.0,-100.00,SW,230,6.0,19.0,99,0.00,,,0.05,94.000000,,2013-01-27 23:11:00,
2013-01-27 16:21:00,39.0,39.0,-100.00,SW,230,6.0,19.0,99,0.00,,,0.05,94.000000,,2013-01-27 23:21:00,
2013-01-27 16:31:00,39.0,39.0,-100.00,SW,230,6.0,19.0,99,0.00,,,0.05,94.000000,,2013-01-27 23:31:00,
2013-01-27 16:53:00,38.0,38.0,-100.00,SW,227,7.0,13.0,99,0.00,,,0.05,49.000000,,2013-01-27 23:53:00,
2013-01-27 17:01:00,38.0,38.0,-100.00,SW,227,7.0,13.0,99,0.00,,,0.05,49.000000,,2013-01-28 00:01:00,
2013-01-27 17:11:00,38.0,38.0,-100.00,SW,227,7.0,13.0,99,0.00,,,0.05,49.000000,,2013-01-28 00:11:00,
2013-01-27 17:21:00,38.0,38.0,-100.00,SW,227,7.0,13.0,99,0.00,,,0.05,49.000000,,2013-01-28 00:21:00,
2013-01-27 17:32:00,38.0,38.0,-100.00,SW,227,7.0,13.0,99,0.00,,,0.05,49.000000,,2013-01-28 00:32:00,
2013-01-27 17:52:00,38.0,38.0,-100.00,SW,229,6.0,12.0,99,0.00,,,0.05,24.000000,,2013-01-28 00:52:00,
2013-01-27 18:01:00,38.0,38.0,-100.00,SW,229,6.0,12.0,99,0.00,,,0.05,24.000000,,2013-01-28 01:01:00,
2013-01-27 18:11:00,38.0,38.0,-100.00,SW,229,6.0,12.0,99,0.00,,,0.05,24.000000,,2013-01-28 01:11:00,
2013-01-27 18:21:00,38.0,38.0,-100.00,SW,229,6.0,12.0,99,0.00,,,0.05,24.000000,,2013-01-28 01:21:00,
2013-01-27 18:32:00,38.0,38.0,-100.00,SW,229,6.0,12.0,99,0.00,,,0.05,24.000000,,2013-01-28 01:32:00,
2013-01-27 19:02:00,38.0,37.0,-100.00,SW,230,7.0,13.0,97,0.00,,,0.05,1.000000,,2013-01-28 02:02:00,
2013-01-27 19:11:00,38.0,37.0,-100.00,SW,230,7.0,13.0,97,0.00,,,0.05,1.000000,,2013-01-28 02:11:00,
2013-01-27 19:21:00,38.0,37.0,-100.00,SW,230,7.0,13.0,97,0.00,,,0.05,1.000000,,2013-01-28 02:21:00,
2013-01-27 19:32:00,38.0,37.0,-100.00,SW,230,7.0,13.0,97,0.00,,,0.05,1.000000,,2013-01-28 02:32:00,
2013-01-27 20:02:00,38.0,36.0,-100.00,SW,220,8.0,17.0,94,0.00,,,0.05,0.000000,,2013-01-28 03:02:00,
2013-01-27 20:11:00,38.0,36.0,-100.00,SW,220,8.0,17.0,94,0.00,,,0.05,0.000000,,2013-01-28 03:11:00,
2013-01-27 20:21:00,38.0,36.0,-100.00,SW,220,8.0,17.0,94,0.00,,,0.05,0.000000,,2013-01-28 03:21:00,
2013-01-27 20:32:00,38.0,36.0,-100.00,SW,220,8.0,17.0,94,0.00,,,0.05,0.000000,,2013-01-28 03:32:00,
2013-01-27 21:01:00,38.0,36.0,-100.00,SW,227,8.0,17.0,94,0.00,,,0.05,0.000000,,2013-01-28 04:01:00,
2013-01-27 21:11:00,38.0,36.0,-100.00,SW,227,8.0,17.0,94,0.00,,,0.05,0.000000,,2013-01-28 04:11:00,
2013-01-27 21:21:00,38.0,36.0,-100.00,SW,227,8.0,17.0,94,0.00,,,0.05,0.000000,,2013-01-28 04:21:00,
2013-01-27 21:31:00,38.0,36.0,-100.00,SW,227,8.0,17.0,94,0.00,,,0.05,0.000000,,2013-01-28 04:31:00,
2013-01-27 21:52:00,38.0,36.0,-100.00,SW,226,8.0,20.0,93,0.00,,,0.05,0.000000,,2013-01-28 04:52:00,
2013-01-27 22:03:00,38.0,36.0,-100.00,SW,226,8.0,20.0,93,0.00,,,0.05,0.000000,,2013-01-28 05:03:00,
2013-01-27 22:11:00,38.0,36.0,-100.00,SW,226,8.0,20.0,93,0.00,,,0.05,0.000000,,2013-01-28 05:11:00,
2013-01-27 22:21:00,38.0,36.0,-100.00,SW,226,8.0,20.0,93,0.00,,,0.05,0.000000,,2013-01-28 05:21:00,
2013-01-27 22:31:00,38.0,36.0,-100.00,SW,226,8.0,20.0,93,0.00,,,0.05,0.000000,,2013-01-28 05:31:00,
2013-01-27 23:02:00,38.0,36.0,-100.00,SW,226,10.0,21.0,93,0.01,,,0.06,0.000000,,2013-01-28 06:02:00,
2013-01-27 23:11:00,38.0,36.0,-100.00,SW,226,10.0,21.0,93,0.01,,,0.06,0.000000,,2013-01-28 06:11:00,
2013-01-27 23:21:00,38.0,36.0,-100.00,SW,226,10.0,21.0,93,0.01,,,0.06,0.000000,,2013-01-28 06:21:00,
2013-01-27 23:31:00,38.0,36.0,-100.00,SW,226,10.0,21.0,93,0.01,,,0.06,0.000000,,2013-01-28 06:31:00,